User: anonymous   Login
Location: Klickitat County Star Party
(45.8642°N, 120.6771°W)
Time: 00:34:52
(UTC-07:00)
Language:

SO-50 - Orbit

View from above orbital plane
View from above orbital plane
View from above satellite
View from above satellite

Ground track
Ground track

The orbit data is extracted from the following two-line orbital elements,

1 27607U 02058C   19140.60679344 -.00000032 +00000-0 +16411-4 0  9994
2 27607 064.5532 138.5191 0082145 262.0807 097.0966 14.75546304882613
Epoch (UTC): 20 May 2019 14:33:46
Eccentricity: 0.0082145
inclination: 64.5532°
perigee height: 586 km
apogee height: 701 km
right ascension of ascending node: 138.5191°
argument of perigee: 262.0807°
revolutions per day: 14.75546304
mean anomaly at epoch: 97.0966°
orbit number at epoch: 88261

The dashed part of the orbit path shows where the satellite is in the earth's shadow,  

DLR